This demonstration page uses our WeatherBlox Daily Observations layout. Learn more.

39.29038, -76.61219

Hourly Observations for July 30, 2016

Temp ( °F °C ) Dew Point ( °F °C ) Humidity (%) Winds ( mph kmh ) Pressure ( in mb ) Visibility ( mi km ) Precip ( " mm )
12:54 am 00:54 undefined 80 26.7 72 22.2 76 76 undefined N/A 29.93 1014 N/A 0 0
1:54 am 01:54 undefined 79 26.1 72 22.2 79 79 undefined N/A 29.93 1014 N/A 0 0
2:54 am 02:54 undefined 78 25.6 72 22.2 82 82 undefined N/A 29.92 1013 N/A 0 0
3:54 am 03:54 undefined 78 25.6 72 22.2 82 82 undefined N/A 29.92 1013 N/A 0 0
4:54 am 04:54 undefined 77 25 72 22.2 85 85 undefined N/A 29.92 1013 N/A 0 0
5:54 am 05:54 undefined 77 25 72 22.2 85 85 undefined N/A 29.94 1014 N/A 0 0
6:54 am 06:54 undefined 77 25 72 22.2 85 85 undefined N/A 29.97 1015 N/A 0 0
7:54 am 07:54 undefined 78 25.6 71 21.7 79 79 undefined N/A 29.98 1015 N/A 0 0
8:54 am 08:54 undefined 79 26.1 72 22.2 79 79 undefined N/A 29.99 1016 N/A 0 0
9:54 am 09:54 undefined 83 28.3 71 21.7 67 67 undefined N/A 30 1016 N/A 0 0
10:54 am 10:54 undefined 86 30 70 21.1 59 59 undefined N/A 30 1016 N/A 0 0
11:54 am 11:54 undefined 87 30.6 69 20.6 55 55 undefined N/A 29.99 1016 N/A 0 0
12:54 pm 12:54 undefined 88 31.1 70 21.1 55 55 undefined N/A 29.96 1014 N/A 0 0
1:54 pm 13:54 undefined 89 31.7 70 21.1 53 53 undefined N/A 29.95 1014 N/A 0 0
2:54 pm 14:54 undefined 80 26.7 71 21.7 74 74 undefined N/A 29.89 1012 N/A 0.04 1.016
3:54 pm 15:54 undefined 84 28.9 70 21.1 63 63 undefined N/A 29.96 1015 N/A 0 0
4:54 pm 16:54 undefined 84 28.9 71 21.7 65 65 undefined N/A 29.93 1013 N/A 0 0
5:54 pm 17:54 undefined 84 28.9 67 19.4 57 57 undefined N/A 29.93 1013 N/A 0 0
6:54 pm 18:54 undefined 80 26.7 70 21.1 71 71 undefined N/A 29.92 1013 N/A 0 0
7:54 pm 19:54 undefined 76 24.4 71 21.7 85 85 undefined N/A 29.93 1014 N/A 0.17 4.318
8:54 pm 20:54 undefined 73 22.8 70 21.1 90 90 undefined N/A 29.98 1015 N/A 0.84 21.336
9:54 pm 21:54 undefined 73 22.8 71 21.7 94 94 undefined N/A 29.97 1015 N/A 1.43 36.322
10:54 pm 22:54 undefined 74 23.3 71 21.7 91 91 undefined N/A 29.98 1015 N/A 0.01 0.254
11:54 pm 23:54 undefined 74 23.3 71 21.7 91 91 undefined N/A 29.98 1015 N/A 0 0

Powered by AerisWeather